Regional Weather Roundup
Issued by NWS Wakefield, VA

Home | Current Version | Previous Version | Text Only | Print | Product List | Glossary Off
Versions: 1 2 3 4 5 6 7 8 9 10 11 12 13 14 15 16 17 18 19 20 21 22 23 24 25 26 27 28 29 30 31 32 33 34 35 36 37 38 39 40 41 42 43 44 45 46 47 48 49 50

000
ASUS41 KAKQ 291910
RWRAKQ

REGIONAL WEATHER ROUNDUP
NATIONAL WEATHER SERVICE WAKEFIELD VA
300 PM EDT MON SEP 29 2014

Note: "fair" indicates few or no clouds below 12,000 feet with no
significant weather and/or obstructions to visibility. * = Denotes
station may not report precipitation (e.g., rain,snow,etc.),
thunder or fog.

VAZ042-051-052>054-056-292000-
NORTHERN VIRGINIA

CITY           SKY/WX    TMP DP  RH WIND       PRES   REMARKS
WASH NATIONAL  CLOUDY    73  62  68 S12       29.96F
DULLES         CLOUDY    69  61  75 CALM      29.96F
FORT BELVOIR   CLOUDY    68  63  82 VRB1      30.00S
QUANTICO       CLOUDY    70  63  78 S8        29.97F
FREDERICKSBRG* CLOUDY    71  65  81 SW3       29.96F
STAFFORD*      CLOUDY    69  69 100 CALM      30.00F
WARRENTON      CLOUDY    72  67  85 SW6       29.97S
CULPEPER*      CLOUDY    72  63  73 S3        29.98S
MANASSAS*      NOT AVBL
LEESBURG*      CLOUDY    72  68  88 S7        29.96F
WINCHESTER     CLOUDY    75  55  50 W5        29.96F
FRONT ROYAL*   CLOUDY    73  59  60 CALM      29.95F
LURAY*         LGT RAIN  75  59  57 CALM      29.97S
$$

VAZ048-049-060>072-079>083-292000-
CENTRAL AND SOUTH CENTRAL VIRGINIA...AND NORTH CENTRAL NORTH CAROLINA

CITY           SKY/WX    TMP DP  RH WIND       PRES   REMARKS
RICHMOND       CLOUDY    70  62  76 W5        29.97F
CHESTERFIELD*  CLOUDY   N/A N/A N/A NW5       29.98F
PETERSBURG*    CLOUDY    69  61  74 CALM      29.98F
HANOVER        CLOUDY    69  64  84 SW5       29.98F
TAPPAHANNOCK*  DRIZZLE   70  61  72 W6        29.98F
CHARLOTTSVILLE CLOUDY    70  64  81 CALM      29.97F
ORANGE*        CLOUDY    68  64  88 CALM      29.98F
LOUISA*        CLOUDY    72  64  78 SW5       29.96F
FARMVILLE*     CLOUDY    70  63  78 CALM      29.95F
CREWE*         CLOUDY    69  63  81 CALM      29.98S
FORT PICKETT*  CLOUDY    68  63  82 W3        29.98F
LUNENBURG*     CLOUDY    68  64  86 CALM      29.98F
SOUTH HILL*    LGT RAIN  70  68  94 S3        30.04F
LAWRENCEVILLE* CLOUDY    67  63  87 CALM      29.99S
ROANOKE RAPIDS CLOUDY    70  63  78 CALM      29.99F
RALEIGH        LGT RAIN  71  61  70 W5        29.99F
$$

VAZ088>098-292000-
SOUTHEAST VIRGINIA

CITY           SKY/WX    TMP DP  RH WIND       PRES   REMARKS
NORFOLK        CLOUDY    74  62  66 N8        29.96F
VIRGINIA BEACH CLOUDY    76  62  62 N7        29.96F
NORFOLK NAVAL  CLOUDY    74  64  71 NW6       29.98F
WEST POINT*    CLOUDY    72  63  73 CALM      29.99F
NEWPORT NEWS   CLOUDY    76  63  64 NW6       29.97F
LANGLEY AFB    CLOUDY    72  65  77 N6        29.98F
FORT EUSTIS    CLOUDY    71  68  92 NW3       29.96F
WILLIAMSBURG*  CLOUDY    73  64  73 CALM      29.98F
HR EXEC AP*    CLOUDY    72  64  78 N3        29.99F
FRANKLIN*      CLOUDY    70  61  73 CALM      29.98F
WAKEFIELD      LGT RAIN  70  62  76 CALM      29.98F
$$

VAZ020-022-025-037-045-292000-
WEST CENTRAL AND SOUTHWEST VIRGINIA

CITY           SKY/WX    TMP DP  RH WIND       PRES   REMARKS
STAUNTON*      CLOUDY    73  54  50 E5        29.99F
HOT SPRINGS VA CLOUDY    62  41  46 NW6       30.09F
LYNCHBURG      CLOUDY    69  63  81 S6        29.99F
DANVILLE       LGT RAIN  67  63  87 VRB5      29.99F
SOUTH BOSTON*  NOT AVBL
MARTINSVILLE   CLOUDY    68  67  94 CALM      30.03S
ROANOKE        CLOUDY    73  60  63 W5        30.01F
BLACKSBURG     CLOUDY    70  64  83 CALM      30.05F
DUBLIN*        CLOUDY    70  63  78 CALM      30.04F
MARION*        CLOUDY    71  60  66 SW7       30.06F
HILLSVILLE*    CLOUDY    67  58  72 N5        30.05F
RICHLANDS*     MOCLDY    73  59  60 CALM      30.05F
WISE*          CLOUDY    73  55  53 CALM      30.06F
ABINGDON*      CLOUDY    73  60  64 CALM      30.03F
$$

MDZ021>025-VAZ099-100-292000-
SOUTHERN MARYLAND AND THE DELMARVA PENINSULA

CITY           SKY/WX    TMP DP  RH WIND       PRES   REMARKS
PATUXENT RIVER LGT RAIN  69  64  84 VRB3      29.96F
BAY BRIDGE APT   N/A     70  61  73 CALM      29.95F
LEONARDTOWN    CLOUDY    68  63  83 SW3       29.98F
DOVER          CLOUDY    73  64  73 VRB2      29.92F
GEORGETOWN     CLOUDY    75  60  59 VRB6      29.95F
EASTON         LGT RAIN  72  66  83 SW5       29.99F
CAMBRIDGE      CLOUDY    72  61  68 CALM      29.95F
SALISBURY      CLOUDY    77  61  57 VRB3      29.96F
OCEAN CITY     PTSUNNY   72  64  76 S6        29.96F
WALLOPS ISLAND CLOUDY    76  62  62 NW6       29.96F
ACCOMACK*      CLOUDY    72  61  68 N6        29.96F
$$

NCZ012>017-030>032-292000-
EASTERN NORTH CAROLINA

CITY           SKY/WX    TMP DP  RH WIND       PRES   REMARKS
ELIZABETH CITY CLOUDY    74  62  66 NW6       29.97S
AHOSKIE*       CLOUDY    69  60  72 CALM      29.99F
EDENTON*       CLOUDY    73  64  73 NW5       29.98S
CURRITUCK*     CLOUDY    74  61  63 N3        29.98R
KILL DEVIL HLS CLOUDY    72  62  71 N7        29.95F
MANTEO         CLOUDY    73  60  65 NE8       29.96F
CAPE HATTERAS  CLOUDY    71  68  90 NE9       29.95F
TARBORO*       LGT RAIN  70  64  80 CALM      30.00F
GOLDSBORO      CLOUDY    71  68  88 CALM      29.96F
WASHINGTON     CLOUDY    73  64  73 N5        29.98R
GREENVILLE     CLOUDY    72  64  78 N5        30.00S
NEW BERN       CLOUDY    77  64  64 N6        29.96F
WILMINGTON     CLOUDY    74  65  73 N7        29.95F
$$

VAZ048-292000-
ELSEWHERE

CITY           SKY/WX    TMP DP  RH WIND       PRES   REMARKS
HARRISBURG PA  CLOUDY    75  61  61 SE3       29.93F
BALTIMORE      CLOUDY    70  63  78 CALM      29.94F
ANNAPOLIS      CLOUDY    71  63  75 CALM      29.94F
ANDREWS AFB    CLOUDY    72  63  72 SW6       29.95F
WILMINGTON DE  CLOUDY    72  63  73 SW5       29.96F
PHILADELPHIA   CLOUDY    74  61  63 SW7       29.94F
WILDWOOD NJ*   CLOUDY    72  57  60 W3        29.96F
ATLANTIC CITY  CLOUDY    75  60  59 SW7       29.95F
HENDERSON NC   LGT RAIN  69  64  83 S3        29.99F
GREENSBORO     LGT RAIN  66  63  90 S3        30.00F
ROCKY MOUNT    CLOUDY    71  60  68 CALM      29.99F
FAYETTEVILLE   LGT RAIN  70  66  87 NE5       29.99F
CHARLOTTE      LGT RAIN  68  63  84 CALM      30.01F
$$

VAZ100-292000-
MARINE

STATION/POSITION TIME  TEMP    WIND        PRES    WAVE   SWELL
                       AIR SEA DIR/SP/G            HT/PER HT/PER
                 (UTC) (F)     (DEG/KT/KT) (MB)    (FT/S) (FT/S)
44066 TX TWR #4  1900   70 71  210/  8/  8 1014.2F   2/ 8   2/ 8
CAPE MAY NJ      1900   71 73   CALM  /  1 1013.9F
LEWES DE         1900   72 70   20/  3/  3 1014.1F
15NM E FENWICK I 1900   72 72              1014.6F   2/ 8
OCEAN-CITY-INLET 1900   74 71  180/  5/  6 1014.2R
WACHAPREAGUE VA  1900   73 73  360/  3/  4 1014.5F
THOMAS POINT MD  1900   69 71  180/  8/  9 1015.1F
GOOSES REEF MD   1900   70     250/  8/  8 1014.9F
COVE POINT MD    1900   69     280/  4/  5 1014.5S
SOLOMONS ISLAND  1900      72                N/A
BISHOPS HEAD MD  1900   71 73  290/  6/  8 1014.1R
PINEY POINT MD   1900          280/  5/  6   N/A
POTOMAC MD       1900   70     300/ 10/ 12 1014.3S
CAMBRIDGE MD     1900   71 71  230/  3/  4 1014.0F
LEWISETTA VA     1900   69 71  280/  4/  6 1014.5F
RAPPAHANNOCK LGT 1900          300/  6/  7 1015.2F
STINGRAY PT      1900   71     300/ 10/ 12   N/A
YORK RVR RNG VA  1900   71     340/  6/  7 1014.4F
YORKTOWN VA      1900   70 73  310/  9/ 10 1014.4F
JAMESTOWN VA     1900   69     350/  4/  6   N/A
DOMINION TERM VA 1900   70     330/  6/  8 1014.9F
KIPTOPEKE VA     1900      76  330/  5/  6   N/A
CHES BAY BRIDGE  1900   72 72  330/  4/  6 1014.2F
CHESAPEAKE LGHT  1800   71     320/  7/  8 1015.7F
WILLOUBY STN VA  1900   71     280/  5/  5 1013.5F
S CRANEY ISL VA  1900          300/  6/  8 1014.4F
CAPE HENRY BUOY  1900      73                N/A     2/ 8
1ST LANDING BUOY 1900   72     300/  4/  6 1014.7R
CAPE CHARLES BUO 1900      72                N/A     2/ 8   2/ 8
OFFSHORE WE BUOY 1900      73                N/A     2/ 8   2/ 8
64NM E OF VA BCH 1900   71 72   10/  8/ 10 1014.1F   2/ 7   2/ 7
DUCK PIER NC     1900   71 73   20/  8/  9 1013.8S
44100 DUCK FRF   1900      72                N/A     2/ 7
44056 DUCK FRF   1900                        N/A     2/ 8
OREGON INLET NC  1900   73 73  360/  7/ 11 1014.4F
DIAMOND SHLS NC  1900   74     360/ 14/ 16 1013.7F   3/ 7   2/ 7
CAPE LOOKOUT NC  1800   74      10/  9/ 11 1014.1F
$$



USA.gov is the U.S. government's official web portal to all federal, state and local government web resources and services.